Location: ??????
(55.2000°N, 38.3000°E)
Time: 16:54:47
(UTC+00:00)

Cosmos 1356 Rocket - Pass Details

Date: 15 November 2025
Orbit: 517 x 558 km, 81.2° (Epoch: 14 December)

Event Time Altitude Azimuth Distance (km) Brightness Sun altitude
Rises 03:32:40 0° 348° (NNW) 2,733 6.6 -12.2°
Reaches altitude 10° 03:34:54 10° 355° (N) 1,841 5.8 -11.9°
Maximum altitude 03:38:51 48° 70° (ENE) 734 4.3 -11.3°
Drops below altitude 10° 03:42:48 10° 146° (SE) 1,843 6.8 -10.8°
Sets 03:45:02 0° 152° (SSE) 2,736 7.6 -10.5°
